EW5523 Weather Reports


time (UTC)temp
C
wind
direction
speed
KPH
gust
KPH
rain 1hr
cm
rain 24hr
cm
rain mn
cm
humidity
%
barometer
mb
20260901000026 9 317 0.0 0.0 0.00 0.00 0.00 93 1017.8
20260831234526 9 317 0.0 0.0 0.00 0.00 0.00 93 1017.7
20260831233025 9 317 0.0 0.0 0.00 0.00 0.00 93 1017.7
20260831231523 9 317 0.0 0.0 0.00 0.00 0.00 92 1017.7
20260831230024 10 317 0.0 0.0 0.00 0.00 0.00 92 1017.8
20260831224521 10 317 0.0 0.0 0.00 0.00 0.00 92 1017.9
20260831223025 10 317 0.0 0.0 0.00 0.00 0.00 92 1017.8
20260831221520 10 317 0.0 0.0 0.00 0.00 0.00 92 1017.9
20260831220020 10 317 0.0 0.0 0.00 0.00 0.00 91 1017.7
20260831214519 10 317 0.0 0.0 0.00 0.00 0.00 91 1017.7
20260831213018 10 317 0.0 0.0 0.00 0.00 0.00 91 1017.8
20260831211516 9 317 0.0 0.0 0.00 0.00 0.00 92 1017.8
20260831210014 9 317 0.0 0.0 0.00 0.00 0.00 92 1017.9
20260831204512 8 317 0.0 0.0 0.00 0.00 0.00 91 1017.9
20260831203014 8 317 0.0 0.0 0.00 0.00 0.00 91 1018.0
20260831201511 8 318 0.0 0.0 0.00 0.00 0.00 91 1018.0
20260831200020 8 317 0.0 0.0 0.00 0.00 0.00 90 1017.9
20260831194509 8 318 0.0 0.0 0.00 0.00 0.00 91 1017.9
20260831193010 8 317 0.0 0.0 0.00 0.00 0.00 89 1017.9
20260831191508 9 317 0.0 0.0 0.00 0.00 0.00 88 1017.9
20260831190007 10 318 0.0 0.0 0.00 0.00 0.00 87 1017.8
20260831184506 10 318 0.0 0.0 0.00 0.00 0.00 87 1017.8
20260831183006 10 317 0.0 0.0 0.00 0.00 0.00 87 1017.8
20260831181506 10 318 0.0 0.0 0.00 0.00 0.00 87 1017.8
20260831180008 9 318 0.0 0.0 0.00 0.00 0.00 88 1017.8
20260831174517 9 317 0.0 0.0 0.00 0.00 0.00 85 1017.7
20260831173004 10 317 0.0 0.0 0.00 0.00 0.00 85 1017.7
20260831171505 10 318 0.0 0.0 0.00 0.00 0.00 83 1017.7
20260831170003 10 317 0.0 0.0 0.00 0.00 0.00 84 1017.7
20260831164509 10 318 0.0 0.0 0.00 0.00 0.00 83 1017.7
20260831163006 11 317 0.0 0.0 0.00 0.00 0.00 80 1017.7
20260831161501 12 317 0.0 0.0 0.00 0.00 0.00 74 1017.7
20260831160001 12 317 0.0 0.0 0.00 0.00 0.00 72 1017.6
20260831154501 12 318 0.0 0.0 0.00 0.00 0.00 71 1017.5
20260831153001 13 317 0.0 0.0 0.00 0.00 0.00 68 1017.5
20260831151607 14 317 0.0 0.0 0.00 0.00 0.00 65 1017.5
20260831150059 14 318 0.0 0.0 0.00 0.00 0.00 64 1017.5
20260831144614 15 318 0.0 0.0 0.00 0.00 0.00 62 1017.5
20260831143103 16 317 0.0 0.0 0.00 0.00 0.00 58 1017.5
20260831141613 17 318 0.0 0.0 0.00 0.00 0.00 56 1017.7
20260831140056 17 312 0.0 0.0 0.00 0.00 0.00 54 1017.8
20260831134557 17 256 0.0 12.9 0.00 0.00 0.00 52 1017.8
20260831133055 17 293 0.0 3.2 0.00 0.00 0.00 53 1017.8
20260831131557 17 320 0.0 1.6 0.00 0.00 0.00 52 1017.9
20260831130056 17 297 1.6 12.9 0.00 0.00 0.00 51 1017.9
20260831124554 17 299 0.0 9.7 0.00 0.00 0.00 52 1017.9
20260831123052 17 305 1.6 14.5 0.00 0.00 0.00 51 1018.1
20260831121551 17 314 1.6 12.9 0.00 0.00 0.00 52 1018.1
20260831120050 17 278 0.0 9.7 0.00 0.00 0.00 52 1018.1
20260831114547 17 41 0.0 16.1 0.00 0.00 0.00 53 1018.3
20260831113046 17 316 0.0 6.4 0.00 0.00 0.00 53 1018.3
20260831111601 17 299 1.6 9.7 0.00 0.00 0.00 53 1018.4
20260831110048 17 303 0.0 9.7 0.00 0.00 0.00 52 1018.5
20260831104554 16 307 0.0 9.7 0.00 0.00 0.00 53 1018.6
20260831103040 16 276 0.0 6.4 0.00 0.00 0.00 55 1018.7
20260831101537 16 310 0.0 8.0 0.00 0.00 0.00 57 1018.8
20260831100035 15 332 0.0 11.3 0.00 0.00 0.00 59 1018.9
20260831094533 16 10 0.0 11.3 0.00 0.00 0.00 55 1019.1
20260831093040 15 285 0.0 14.5 0.00 0.00 0.00 56 1019.1
20260831091528 15 280 0.0 9.7 0.00 0.00 0.00 57 1019.2
20260831090026 15 284 0.0 9.7 0.00 0.00 0.00 61 1019.3
20260831084523 15 274 0.0 9.7 0.00 0.00 0.00 62 1019.5
20260831083023 14 308 0.0 6.4 0.00 0.00 0.00 63 1019.6
20260831081521 15 201 0.0 0.0 0.00 0.00 0.00 61 1019.7
20260831080022 13 301 0.0 8.0 0.00 0.00 0.00 64 1019.9
20260831074514 13 249 0.0 8.0 0.00 0.00 0.00 64 1020.1
20260831073014 13 278 0.0 6.4 0.00 0.00 0.00 66 1020.3
20260831071525 13 280 0.0 9.7 0.00 0.00 0.00 66 1020.4
20260831070007 13 133 0.0 0.0 0.00 0.00 0.00 67 1020.6
20260831064505 12 235 0.0 1.6 0.00 0.00 0.00 68 1020.7
20260831063002 12 339 0.0 4.8 0.00 0.00 0.00 67 1020.7
20260831061558 11 162 0.0 0.0 0.00 0.00 0.00 70 1020.8
20260831060055 11 204 0.0 1.6 0.00 0.00 0.00 70 1020.9
20260831054552 10 278 0.0 3.2 0.00 0.00 0.00 72 1021.1
20260831053049 10 293 0.0 0.0 0.00 0.00 0.00 76 1021.2
20260831051545 8 283 0.0 6.4 0.00 0.00 0.00 80 1021.2
20260831050041 8 262 0.0 0.0 0.00 0.00 0.00 81 1021.4
20260831044540 8 277 0.0 0.0 0.00 0.00 0.00 82 1021.4
20260831043035 7 326 0.0 0.0 0.00 0.00 0.00 87 1021.4
20260831041532 6 327 0.0 0.0 0.00 0.00 0.00 89 1021.6
20260831040032 5 330 0.0 0.0 0.00 0.00 0.00 92 1021.6
20260831034525 5 331 0.0 0.0 0.00 0.00 0.00 94 1021.6
20260831033027 4 330 0.0 0.0 0.00 0.00 0.00 95 1021.7
20260831031521 3 330 0.0 0.0 0.00 0.00 0.00 95 1021.7
20260831030023 3 330 0.0 0.0 0.00 0.00 0.00 95 1021.6
20260831024520 2 330 0.0 0.0 0.00 0.00 0.00 95 1021.6
20260831023024 2 330 0.0 0.0 0.00 0.00 0.00 95 1021.6
20260831021519 2 330 0.0 0.0 0.00 0.00 0.00 94 1021.6
20260831020017 2 330 0.0 0.0 0.00 0.00 0.00 94 1021.6
20260831014516 1 330 0.0 0.0 0.00 0.00 0.00 93 1021.5
20260831013015 2 330 0.0 0.0 0.00 0.00 0.00 93 1021.5
20260831011513 2 330 0.0 0.0 0.00 0.00 0.00 93 1021.5
20260831010011 2 330 0.0 0.0 0.00 0.00 0.00 92 1021.5
20260831004511 2 331 0.0 0.0 0.00 0.00 0.00 92 1021.4
20260831003010 3 330 0.0 0.0 0.00 0.00 0.00 93 1021.5
20260831001510 3 330 0.0 0.0 0.00 0.00 0.00 94 1021.5